Weather History for KBTV - June, 2013

Change the Weather History Date:

Friday, June 14, 2013

  Actual Average Record
Temperature  
Mean Temperature 66 °F 66 °F  
Max Temperature 78 °F 76 °F 94 °F (1988)
Min Temperature 53 °F 55 °F 36 °F (1912)
Degree Days  
Heating Degree Days 0 2  
Month to date heating degree days 47 51  
Since 1 June heating degree days 47 51  
Since 1 July heating degree days 6685 7412  
Cooling Degree Days 1 3  
Month to date cooling degree days 27 30  
Year to date cooling degree days 74 49  
Since 1 June cooling degree days 27 30  
Growing Degree Days 16 (Base 50)    
Moisture  
Dew Point 52 °F    
Average Humidity 68    
Maximum Humidity 93    
Minimum Humidity 42    
Precipitation  
Precipitation T in 0.13 in 4.45 in (1942)
Month to date precipitation 4.62 1.73  
Year to date precipitation 19.89 14.04  
Snow  
Snow 0.00 in 0.00 in 0.00 in (2002)
Month to date snowfall 0.0 0.0  
Since 1 June snowfall 0.0 0.0  
Since 1 July snowfall 82.9 81.2  
Snow Depth 0.00 in    
Sea Level Pressure  
Sea Level Pressure 29.76 in    
Wind  
Wind Speed 7 mph (NNW)    
Max Wind Speed 22 mph    
Max Gust Speed 29 mph    
Visibility 10 miles    
Events      
T = Trace of Precipitation, MM = Missing Value Source: NWS Daily Summary

Daily Weather History Graph

Daily Weather History Graph

Search for Another Location

Airport or City:

Trip Planner

Search our weather history database for the weather conditions in past years. The results will help you decide how hot, cold, wet, or windy it might be!

Date:

Astronomy

Jun. 14, 2013 Rise Set
Actual Time 5:07 AM EDT 8:38 PM EDT
Civil Twilight 4:30 AM EDT 9:15 PM EDT
Nautical Twilight 3:42 AM EDT 10:04 PM EDT
Astronomical Twilight 2:39 AM EDT 11:06 PM EDT
Moon 10:51 AM EDT (6/14) No Moon Set
Length of Visible Light 16h 44m
Length of Day
15h 31m
Waxing Crescent, 30% of the Moon is Illuminated
Jun 14
Waxing Crescent
Jun 16
First Quarter
Jun 23
Full
Jun 30
Last Quarter
Jul 8
New

Hourly Weather History & Observations

Time (EDT) Temp. Dew Point Humidity Pressure Visibility Wind Dir Wind Speed Gust Speed Precip Events Conditions
12:54 AM 57.0 °F 54.0 °F 89% 29.72 in 10.0 mi East 3.5 mph - N/A   Scattered Clouds
1:54 AM 57.0 °F 53.1 °F 87% 29.71 in 10.0 mi Calm Calm - N/A   Clear
2:54 AM 55.9 °F 54.0 °F 93% 29.70 in 10.0 mi Calm Calm - N/A   Mostly Cloudy
3:54 AM 55.0 °F 53.1 °F 93% 29.70 in 10.0 mi Calm Calm - N/A   Partly Cloudy
4:54 AM 54.0 °F 52.0 °F 93% 29.72 in 10.0 mi East 3.5 mph - N/A   Partly Cloudy
5:54 AM 54.0 °F 52.0 °F 93% 29.73 in 10.0 mi ENE 3.5 mph - N/A   Clear
6:54 AM 55.0 °F 52.0 °F 89% 29.74 in 10.0 mi Calm Calm - N/A   Partly Cloudy
7:54 AM 59.0 °F 54.0 °F 83% 29.75 in 10.0 mi Calm Calm - N/A   Clear
8:54 AM 63.0 °F 54.0 °F 72% 29.76 in 10.0 mi North 9.2 mph - N/A   Clear
9:54 AM 66.0 °F 55.0 °F 68% 29.76 in 10.0 mi North 9.2 mph - N/A   Partly Cloudy
10:54 AM 69.1 °F 55.9 °F 63% 29.78 in 10.0 mi NW 11.5 mph - N/A   Scattered Clouds
11:54 AM 73.9 °F 55.9 °F 53% 29.77 in 10.0 mi North 12.7 mph 17.3 mph N/A   Scattered Clouds
12:54 PM 73.9 °F 53.1 °F 48% 29.77 in 10.0 mi North 13.8 mph 21.9 mph N/A   Partly Cloudy
1:54 PM 75.0 °F 52.0 °F 44% 29.77 in 10.0 mi NNW 18.4 mph 25.3 mph N/A   Scattered Clouds
2:54 PM 75.9 °F 52.0 °F 43% 29.77 in 10.0 mi North 13.8 mph 20.7 mph N/A   Partly Cloudy
3:54 PM 75.9 °F 52.0 °F 43% 29.76 in 10.0 mi North 11.5 mph 19.6 mph N/A   Partly Cloudy
4:54 PM 78.1 °F 53.1 °F 42% 29.76 in 10.0 mi NNW 13.8 mph 20.7 mph N/A   Scattered Clouds
5:54 PM 77.0 °F 53.1 °F 43% 29.77 in 10.0 mi NNW 8.1 mph - N/A   Scattered Clouds
6:54 PM 75.0 °F 55.0 °F 50% 29.78 in 10.0 mi NW 11.5 mph - N/A   Mostly Cloudy
7:54 PM 72.0 °F 53.1 °F 51% 29.80 in 10.0 mi NW 8.1 mph - 0.00 in   Mostly Cloudy
8:54 PM 69.1 °F 48.9 °F 49% 29.80 in 10.0 mi WNW 6.9 mph - N/A   Partly Cloudy
9:54 PM 64.9 °F 48.0 °F 54% 29.83 in 10.0 mi NW 4.6 mph - N/A   Clear
10:54 PM 63.0 °F 46.0 °F 54% 29.84 in 10.0 mi NW 3.5 mph - N/A   Clear
11:54 PM 63.0 °F 46.0 °F 54% 29.86 in 10.0 mi NNW 3.5 mph - N/A   Clear